﻿測定場所 (Monitoring sites),日付 (Measurement date),時間 (Measurement time),線量率 最大値 (max) μGy/h,線量率 最小値 (min) μGy/h,線量率 平均値 (average) μGy/h,
調布 (Chofu),2021-11-28,23:01～24:00,0.0298,0.0257,0.0275,
調布 (Chofu),2021-11-28,22:01～23:00,0.0296,0.0250,0.0275,
調布 (Chofu),2021-11-28,21:01～22:00,0.0294,0.0255,0.0272,
調布 (Chofu),2021-11-28,20:01～21:00,0.0289,0.0258,0.0273,
調布 (Chofu),2021-11-28,19:01～20:00,0.0296,0.0247,0.0271,
調布 (Chofu),2021-11-28,18:01～19:00,0.0295,0.0251,0.0274,
調布 (Chofu),2021-11-28,17:01～18:00,0.0305,0.0249,0.0270,
調布 (Chofu),2021-11-28,16:01～17:00,0.0287,0.0250,0.0271,
調布 (Chofu),2021-11-28,15:01～16:00,0.0297,0.0255,0.0272,
調布 (Chofu),2021-11-28,14:01～15:00,0.0293,0.0255,0.0273,
調布 (Chofu),2021-11-28,13:01～14:00,0.0296,0.0257,0.0274,
調布 (Chofu),2021-11-28,12:01～13:00,0.0302,0.0253,0.0275,
調布 (Chofu),2021-11-28,11:01～12:00,0.0294,0.0256,0.0274,
調布 (Chofu),2021-11-28,10:01～11:00,0.0297,0.0259,0.0280,
調布 (Chofu),2021-11-28,09:01～10:00,0.0300,0.0263,0.0281,
調布 (Chofu),2021-11-28,08:01～09:00,0.0316,0.0283,0.0297,
調布 (Chofu),2021-11-28,07:01～08:00,0.0320,0.0279,0.0300,
調布 (Chofu),2021-11-28,06:01～07:00,0.0314,0.0272,0.0291,
調布 (Chofu),2021-11-28,05:01～06:00,0.0299,0.0267,0.0285,
調布 (Chofu),2021-11-28,04:01～05:00,0.0301,0.0268,0.0284,
調布 (Chofu),2021-11-28,03:01～04:00,0.0306,0.0264,0.0281,
調布 (Chofu),2021-11-28,02:01～03:00,0.0289,0.0256,0.0277,
調布 (Chofu),2021-11-28,01:01～02:00,0.0306,0.0261,0.0278,
調布 (Chofu),2021-11-28,00:01～01:00,0.0303,0.0257,0.0277,
調布 (Chofu),2021-11-27,23:01～24:00,0.0295,0.0257,0.0275,
調布 (Chofu),2021-11-27,22:01～23:00,0.0295,0.0258,0.0277,
調布 (Chofu),2021-11-27,21:01～22:00,0.0299,0.0257,0.0275,
調布 (Chofu),2021-11-27,20:01～21:00,0.0297,0.0256,0.0275,
調布 (Chofu),2021-11-27,19:01～20:00,0.0295,0.0257,0.0276,
調布 (Chofu),2021-11-27,18:01～19:00,0.0289,0.0254,0.0274,
調布 (Chofu),2021-11-27,17:01～18:00,0.0302,0.0257,0.0277,
調布 (Chofu),2021-11-27,16:01～17:00,0.0300,0.0256,0.0277,
調布 (Chofu),2021-11-27,15:01～16:00,0.0298,0.0262,0.0278,
調布 (Chofu),2021-11-27,14:01～15:00,0.0302,0.0263,0.0279,
調布 (Chofu),2021-11-27,13:01～14:00,0.0297,0.0262,0.0280,
調布 (Chofu),2021-11-27,12:01～13:00,0.0304,0.0264,0.0281,
調布 (Chofu),2021-11-27,11:01～12:00,0.0305,0.0260,0.0279,
調布 (Chofu),2021-11-27,10:01～11:00,0.0303,0.0258,0.0281,
調布 (Chofu),2021-11-27,09:01～10:00,0.0297,0.0265,0.0281,
調布 (Chofu),2021-11-27,08:01～09:00,0.0307,0.0259,0.0280,
調布 (Chofu),2021-11-27,07:01～08:00,0.0299,0.0254,0.0279,
調布 (Chofu),2021-11-27,06:01～07:00,0.0302,0.0264,0.0279,
調布 (Chofu),2021-11-27,05:01～06:00,0.0305,0.0266,0.0283,
調布 (Chofu),2021-11-27,04:01～05:00,0.0305,0.0263,0.0287,
調布 (Chofu),2021-11-27,03:01～04:00,0.0309,0.0261,0.0287,
調布 (Chofu),2021-11-27,02:01～03:00,0.0309,0.0266,0.0285,
調布 (Chofu),2021-11-27,01:01～02:00,0.0303,0.0265,0.0287,
調布 (Chofu),2021-11-27,00:01～01:00,0.0306,0.0270,0.0288,
調布 (Chofu),2021-11-26,23:01～24:00,0.0309,0.0270,0.0288,
調布 (Chofu),2021-11-26,22:01～23:00,0.0312,0.0273,0.0290,
調布 (Chofu),2021-11-26,21:01～22:00,0.0315,0.0271,0.0288,
調布 (Chofu),2021-11-26,20:01～21:00,0.0316,0.0263,0.0287,
調布 (Chofu),2021-11-26,19:01～20:00,0.0301,0.0264,0.0280,
調布 (Chofu),2021-11-26,18:01～19:00,0.0299,0.0258,0.0278,
調布 (Chofu),2021-11-26,17:01～18:00,0.0307,0.0260,0.0277,
調布 (Chofu),2021-11-26,16:01～17:00,0.0293,0.0256,0.0278,
調布 (Chofu),2021-11-26,15:01～16:00,0.0299,0.0257,0.0279,
調布 (Chofu),2021-11-26,14:01～15:00,0.0294,0.0261,0.0278,
調布 (Chofu),2021-11-26,13:01～14:00,0.0300,0.0260,0.0277,
調布 (Chofu),2021-11-26,12:01～13:00,0.0303,0.0259,0.0280,
調布 (Chofu),2021-11-26,11:01～12:00,0.0301,0.0264,0.0280,
調布 (Chofu),2021-11-26,10:01～11:00,0.0307,0.0266,0.0282,
調布 (Chofu),2021-11-26,09:01～10:00,0.0314,0.0270,0.0287,
調布 (Chofu),2021-11-26,08:01～09:00,0.0316,0.0274,0.0298,
調布 (Chofu),2021-11-26,07:01～08:00,0.0323,0.0274,0.0297,
調布 (Chofu),2021-11-26,06:01～07:00,0.0318,0.0279,0.0298,
調布 (Chofu),2021-11-26,05:01～06:00,0.0321,0.0280,0.0296,
調布 (Chofu),2021-11-26,04:01～05:00,0.0314,0.0268,0.0292,
調布 (Chofu),2021-11-26,03:01～04:00,0.0309,0.0273,0.0292,
調布 (Chofu),2021-11-26,02:01～03:00,0.0312,0.0266,0.0288,
調布 (Chofu),2021-11-26,01:01～02:00,0.0304,0.0270,0.0286,
調布 (Chofu),2021-11-26,00:01～01:00,0.0302,0.0270,0.0286,
調布 (Chofu),2021-11-25,23:01～24:00,0.0299,0.0267,0.0281,
調布 (Chofu),2021-11-25,22:01～23:00,0.0298,0.0254,0.0275,
調布 (Chofu),2021-11-25,21:01～22:00,0.0295,0.0251,0.0274,
調布 (Chofu),2021-11-25,20:01～21:00,0.0296,0.0262,0.0278,
調布 (Chofu),2021-11-25,19:01～20:00,0.0293,0.0256,0.0276,
調布 (Chofu),2021-11-25,18:01～19:00,0.0304,0.0255,0.0276,
調布 (Chofu),2021-11-25,17:01～18:00,0.0291,0.0258,0.0274,
調布 (Chofu),2021-11-25,16:01～17:00,0.0295,0.0253,0.0274,
調布 (Chofu),2021-11-25,15:01～16:00,0.0297,0.0254,0.0274,
調布 (Chofu),2021-11-25,14:01～15:00,0.0296,0.0256,0.0273,
調布 (Chofu),2021-11-25,13:01～14:00,0.0288,0.0250,0.0273,
調布 (Chofu),2021-11-25,12:01～13:00,0.0298,0.0253,0.0274,
調布 (Chofu),2021-11-25,11:01～12:00,0.0294,0.0258,0.0275,
調布 (Chofu),2021-11-25,10:01～11:00,0.0305,0.0265,0.0283,
調布 (Chofu),2021-11-25,09:01～10:00,0.0313,0.0275,0.0291,
調布 (Chofu),2021-11-25,08:01～09:00,0.0311,0.0283,0.0298,
調布 (Chofu),2021-11-25,07:01～08:00,0.0319,0.0276,0.0298,
調布 (Chofu),2021-11-25,06:01～07:00,0.0320,0.0275,0.0294,
調布 (Chofu),2021-11-25,05:01～06:00,0.0311,0.0273,0.0296,
調布 (Chofu),2021-11-25,04:01～05:00,0.0320,0.0268,0.0292,
調布 (Chofu),2021-11-25,03:01～04:00,0.0316,0.0272,0.0290,
調布 (Chofu),2021-11-25,02:01～03:00,0.0325,0.0267,0.0290,
調布 (Chofu),2021-11-25,01:01～02:00,0.0303,0.0273,0.0288,
調布 (Chofu),2021-11-25,00:01～01:00,0.0309,0.0264,0.0286,
調布 (Chofu),2021-11-24,23:01～24:00,0.0293,0.0256,0.0276,
調布 (Chofu),2021-11-24,22:01～23:00,0.0294,0.0254,0.0276,
調布 (Chofu),2021-11-24,21:01～22:00,0.0291,0.0256,0.0274,
調布 (Chofu),2021-11-24,20:01～21:00,0.0300,0.0256,0.0271,
調布 (Chofu),2021-11-24,19:01～20:00,0.0298,0.0256,0.0275,
調布 (Chofu),2021-11-24,18:01～19:00,0.0292,0.0260,0.0273,
調布 (Chofu),2021-11-24,17:01～18:00,0.0291,0.0251,0.0272,
調布 (Chofu),2021-11-24,16:01～17:00,0.0293,0.0252,0.0269,
調布 (Chofu),2021-11-24,15:01～16:00,0.0292,0.0260,0.0273,
調布 (Chofu),2021-11-24,14:01～15:00,0.0291,0.0261,0.0276,
調布 (Chofu),2021-11-24,13:01～14:00,0.0292,0.0246,0.0274,
調布 (Chofu),2021-11-24,12:01～13:00,0.0294,0.0257,0.0278,
調布 (Chofu),2021-11-24,11:01～12:00,0.0303,0.0260,0.0280,
調布 (Chofu),2021-11-24,10:01～11:00,0.0299,0.0252,0.0279,
調布 (Chofu),2021-11-24,09:01～10:00,0.0305,0.0260,0.0279,
調布 (Chofu),2021-11-24,08:01～09:00,0.0300,0.0262,0.0278,
調布 (Chofu),2021-11-24,07:01～08:00,0.0295,0.0262,0.0280,
調布 (Chofu),2021-11-24,06:01～07:00,0.0302,0.0260,0.0278,
調布 (Chofu),2021-11-24,05:01～06:00,0.0301,0.0263,0.0280,
調布 (Chofu),2021-11-24,04:01～05:00,0.0304,0.0256,0.0282,
調布 (Chofu),2021-11-24,03:01～04:00,0.0304,0.0273,0.0285,
調布 (Chofu),2021-11-24,02:01～03:00,0.0309,0.0258,0.0283,
調布 (Chofu),2021-11-24,01:01～02:00,0.0303,0.0262,0.0281,
調布 (Chofu),2021-11-24,00:01～01:00,0.0299,0.0266,0.0285,
調布 (Chofu),2021-11-23,23:01～24:00,0.0300,0.0257,0.0283,
調布 (Chofu),2021-11-23,22:01～23:00,0.0301,0.0262,0.0282,
調布 (Chofu),2021-11-23,21:01～22:00,0.0297,0.0265,0.0281,
調布 (Chofu),2021-11-23,20:01～21:00,0.0307,0.0269,0.0286,
調布 (Chofu),2021-11-23,19:01～20:00,0.0310,0.0260,0.0286,
調布 (Chofu),2021-11-23,18:01～19:00,0.0301,0.0264,0.0281,
調布 (Chofu),2021-11-23,17:01～18:00,0.0298,0.0261,0.0279,
調布 (Chofu),2021-11-23,16:01～17:00,0.0300,0.0258,0.0280,
調布 (Chofu),2021-11-23,15:01～16:00,0.0298,0.0256,0.0278,
調布 (Chofu),2021-11-23,14:01～15:00,0.0299,0.0255,0.0278,
調布 (Chofu),2021-11-23,13:01～14:00,0.0304,0.0261,0.0283,
調布 (Chofu),2021-11-23,12:01～13:00,0.0302,0.0260,0.0283,
調布 (Chofu),2021-11-23,11:01～12:00,0.0300,0.0255,0.0281,
調布 (Chofu),2021-11-23,10:01～11:00,0.0305,0.0263,0.0283,
調布 (Chofu),2021-11-23,09:01～10:00,0.0299,0.0263,0.0281,
調布 (Chofu),2021-11-23,08:01～09:00,0.0305,0.0274,0.0284,
調布 (Chofu),2021-11-23,07:01～08:00,0.0305,0.0263,0.0283,
調布 (Chofu),2021-11-23,06:01～07:00,0.0303,0.0263,0.0280,
調布 (Chofu),2021-11-23,05:01～06:00,0.0298,0.0256,0.0281,
調布 (Chofu),2021-11-23,04:01～05:00,0.0315,0.0267,0.0285,
調布 (Chofu),2021-11-23,03:01～04:00,0.0320,0.0273,0.0294,
調布 (Chofu),2021-11-23,02:01～03:00,0.0371,0.0287,0.0326,
調布 (Chofu),2021-11-23,01:01～02:00,0.0459,0.0347,0.0390,
調布 (Chofu),2021-11-23,00:01～01:00,0.0360,0.0306,0.0326,
調布 (Chofu),2021-11-22,23:01～24:00,0.0443,0.0332,0.0382,
調布 (Chofu),2021-11-22,22:01～23:00,0.0478,0.0407,0.0451,
調布 (Chofu),2021-11-22,21:01～22:00,0.0464,0.0301,0.0384,
調布 (Chofu),2021-11-22,20:01～21:00,0.0328,0.0283,0.0300,
調布 (Chofu),2021-11-22,19:01～20:00,0.0360,0.0294,0.0335,
調布 (Chofu),2021-11-22,18:01～19:00,0.0434,0.0309,0.0366,
調布 (Chofu),2021-11-22,17:01～18:00,0.0481,0.0395,0.0439,
調布 (Chofu),2021-11-22,16:01～17:00,0.0469,0.0341,0.0402,
調布 (Chofu),2021-11-22,15:01～16:00,0.0359,0.0289,0.0316,
調布 (Chofu),2021-11-22,14:01～15:00,0.0306,0.0254,0.0281,
調布 (Chofu),2021-11-22,13:01～14:00,0.0304,0.0253,0.0274,
調布 (Chofu),2021-11-22,12:01～13:00,0.0300,0.0260,0.0277,
調布 (Chofu),2021-11-22,11:01～12:00,0.0300,0.0256,0.0278,
調布 (Chofu),2021-11-22,10:01～11:00,0.0299,0.0253,0.0276,
調布 (Chofu),2021-11-22,09:01～10:00,0.0296,0.0262,0.0279,
調布 (Chofu),2021-11-22,08:01～09:00,0.0306,0.0262,0.0280,
調布 (Chofu),2021-11-22,07:01～08:00,0.0299,0.0260,0.0281,
調布 (Chofu),2021-11-22,06:01～07:00,0.0304,0.0266,0.0286,
調布 (Chofu),2021-11-22,05:01～06:00,0.0332,0.0279,0.0302,
調布 (Chofu),2021-11-22,04:01～05:00,0.0367,0.0304,0.0336,
調布 (Chofu),2021-11-22,03:01～04:00,0.0354,0.0289,0.0323,
調布 (Chofu),2021-11-22,02:01～03:00,0.0400,0.0320,0.0350,
調布 (Chofu),2021-11-22,01:01～02:00,0.0434,0.0363,0.0393,
調布 (Chofu),2021-11-22,00:01～01:00,0.0442,0.0371,0.0405,
